Location: Marseilles
(40.7010°N, 83.3930°W)
Time: 10:23:39
(UTC-04:00)

Cosmos 1459 Rocket - Visible Passes

Search period start: 23 September 2014 00:00
Search period end: 03 October 2014 00:00
Orbit: 938 x 1001 km, 83.0° (Epoch: 22 September)

Date Brightness Start Highest point End Pass type
(mag) Time Alt. Az. Time Alt. Az. Time Alt. Az.
23 Sep 6.1 06:13:21 10° SE 06:18:45 31° E 06:24:08 10° NNE visible
24 Sep 5.0 06:35:55 10° SSE 06:42:03 53° E 06:48:10 10° NNE visible
25 Sep 7.1 05:18:35 10° ESE 05:21:13 13° E 05:23:49 10° NE visible
26 Sep 6.4 05:39:27 10° SE 05:44:17 24° E 05:49:06 10° NE visible
27 Sep 5.4 06:01:40 10° SSE 06:07:31 41° E 06:13:20 10° NNE visible
28 Sep 4.4 06:24:36 10° S 06:30:54 72° E 06:37:10 10° NNE visible
29 Sep 6.7 05:05:49 10° ESE 05:09:51 18° E 05:13:52 10° NE visible
29 Sep 4.0 06:48:07 10° SSW 06:54:25 67° W 07:00:41 10° N visible
30 Sep 5.8 05:27:34 10° SSE 05:33:01 32° E 05:38:26 10° NNE visible
01 Oct 4.7 05:50:11 10° SSE 05:56:20 56° E 06:02:25 10° NNE visible
02 Oct 6.8 04:32:37 10° ESE 04:35:27 13° E 04:38:16 10° NE visible
02 Oct 4.0 06:13:27 10° S 06:19:47 86° W 06:26:04 10° N visible
